Weather Roundup
Issued by NWS Chicago, IL

Home | Current Version | Previous Version | Graphics & Text | Print | Product List | Glossary On
Versions: 1 2 3 4 5 6 7 8 9 10 11 12 13 14 15 16 17 18 19 20 21 22 23 24 25 26 27 28 29 30 31 32 33 34 35 36 37 38 39 40 41 42 43 44 45 46 47 48 49 50
000
NZUS59 KLOT 020908
HRRLOT

CHICAGO AREA WEATHER ROUNDUP
NATIONAL WEATHER SERVICE CHICAGO/ROMEOVILLE IL
400 AM CDT TUE JUN 02 2015

NOTE: "FAIR" INDICATES FEW OR NO CLOUDS BELOW 12,000 FEET WITH NO
SIGNIFICANT WEATHER AND/OR OBSTRUCTIONS TO VISIBILITY.

* THESE STATIONS ARE NOT UNDER NWS QUALITY CONTROL. THEY ALSO MAY NOT
  REPORT WEATHER SUCH AS PRECIPITATION OR FOG.

ILZ005-006-012>014-019>023-021000-
NORTHEAST ILLINOIS

CITY           SKY/WX    TMP DP  RH WIND       PRES   REMARKS
OHARE          CLEAR     45  38  76 N3        30.18R
MIDWAY         CLEAR     47  39  74 CALM      30.18R
AURORA         CLEAR     44  36  73 CALM      30.18S
LANSING*       CLEAR     40  37  89 CALM      30.19R
JOLIET*        CLEAR     42  40  93 CALM      30.19R
WAUKEGAN       CLEAR     41  38  89 N3        30.19R
DUPAGE AIRPORT CLEAR     42  36  79 N3        30.17S
WHEELING       CLEAR     43  38  82 CALM      30.20S
KANKAKEE*      CLEAR     44  42  93 CALM      30.19R
MORRIS*        PTCLDY    44  39  85 CALM      30.16F
LEWIS AIRPORT* CLEAR     42  38  85 NE3       30.18S
NORTHERLY IS     N/A     48  42  80 MISG        N/A
$$

WIZ051-052-058>065-066-070>072-021000-
SOUTHEAST WISCONSIN

CITY           SKY/WX    TMP DP  RH WIND       PRES   REMARKS
MILWAUKEE      CLEAR     43  34  70 CALM      30.20R
KENOSHA*       CLEAR     39  35  86 N5        30.19S
RACINE*        CLEAR     42  37  82 N3        30.21S
BURLINGTON     CLEAR     35  34  96 CALM      30.19S
WAUKESHA       CLEAR     37  34  87 CALM      30.20S
WEST BEND      CLEAR     37  36  93 CALM      30.20S
$$

INZ001>003-010>013-019-020-021000-
NORTHWEST INDIANA

CITY           SKY/WX    TMP DP  RH WIND       PRES   REMARKS
GARY*          CLEAR     43  42  99 CALM      30.19R
MICHIGAN CITY* NOT AVBL
RENSSELAER*    NOT AVBL
VALPARAISO     CLEAR     43  42  97 E5        30.19R
$$

LMZ740>746-021000-
SOUTHERN LAKE MICHIGAN

STATION/POSITION TIME  SKY/WX   TEMP WIND        PRES    VSBY
                                AIR  DIR/SP/G
                 (UTC)          (F)  (DEG/KT/KT) (MB)    (MI)
HARRISON CRIB    0800            49  360/  6/  6   N/A
BURNHAM HARBOR   0900            48   10/  4/  6   N/A
CALUMET HARBOR   0800            48   30/  2/  3   N/A
BURNS HARBOR     0800                210/  3/  3 1022.4S
MICHIGAN CITY    0800            47  150/  3/  3   N/A
$$

ABBREVIATIONS USED IN REMARKS
   TC - TEMPERATURE IN CELSIUS
  WCI - WIND CHILL INDEX
   HX - HEAT INDEX
  VSB - VISIBILITY
$$


USA.gov is the U.S. government's official web portal to all federal, state and local government web resources and services.